User: anonymous   Login
Location: Taipo
(41.0000°S, 175.9500°E)
Time: 11:23:40
(UTC+00:00)
Language:

Meteor 2-20 - Orbit

View from above orbital plane
View from above orbital plane
View from above satellite
View from above satellite

Ground track
Ground track

The orbit data is extracted from the following two-line orbital elements,

1 20826U 90086A   24165.22087874  .00000062  00000-0  42785-4 0  9995
2 20826  82.5257  62.5829 0012131 287.0490  72.9340 13.84360309702954
Epoch (UTC): 13 June 2024 05:18:03
Eccentricity: 0.0012131
inclination: 82.5257°
perigee height: 939 km
apogee height: 957 km
right ascension of ascending node: 62.5829°
argument of perigee: 287.0490°
revolutions per day: 13.84360309
mean anomaly at epoch: 72.9340°
orbit number at epoch: 70295

The dashed part of the orbit path shows where the satellite is in the earth's shadow,  

DLR